Regional Weather Roundup
Issued by NWS

Home | Current Version | Previous Version | Text Only | Print | Product List | Glossary Off
Versions: 1 2 3 4 5 6 7 8 9 10 11 12 13 14 15 16 17 18 19 20 21 22 23 24 25 26 27 28 29 30 31 32 33 34 35 36 37 38 39 40 41 42 43 44 45 46 47 48 49 50

000
ASUS43 KFSD 012102
RWRSD

WEATHER ROUNDUP FOR SOUTH DAKOTA
NATIONAL WEATHER SERVICE SIOUX FALLS SD
400 PM CDT MON JUN 01 2015

NOTE: "FAIR" INDICATES FEW OR NO CLOUDS BELOW 12,000 FEET WITH NO
SIGNIFICANT WEATHER AND/OR OBSTRUCTIONS TO VISIBILITY.


SDZ001>005-009-010-012>017-012200-
NORTHWEST AND NORTH CENTRAL SOUTH DAKOTA

CITY           SKY/WX    TMP DP  RH WIND       PRES   REMARKS
BUFFALO          N/A     85  57  38 S14       29.78F
FAITH            N/A     82  60  47 SE13G29   29.86F
MOBRIDGE       SUNNY     83  59  44 S18       29.86F
$$

SDZ012>016-024>037-041>051-057-063-072>074-012200-
SOUTHWEST AND SOUTH CENTRAL SOUTH DAKOTA

CITY           SKY/WX    TMP DP  RH WIND       PRES   REMARKS
RAPID CTY ARPT PTSUNNY   86  57  37 S17       29.86F
PIERRE         SUNNY     83  63  50 S16G23    29.88F
CUSTER         SUNNY     77  51  40 S10       30.01F
PHILIP         MOSUNNY   85  60  42 SE12      29.86F
PINE RIDGE     MOSUNNY   84  55  36 S18G25    29.91F
WINNER         FAIR      85  59  41 S24       29.93F
$$

SDZ004>011-016>023-039-040-012200-
NORTHEAST SOUTH DAKOTA

CITY           SKY/WX    TMP DP  RH WIND       PRES   REMARKS
ABERDEEN       MOSUNNY   81  58  45 S20G29    29.94F
WATERTOWN      PTSUNNY   75  48  38 S16G29    30.02F
BROOKINGS      MOSUNNY   75  48  38 S16G24    30.05F
SISSETON         N/A     78  49  35 S24       29.99F
$$

SDZ017-020-022-023-036>040-048>070-012200-
SOUTHEAST SOUTH DAKOTA

CITY           SKY/WX    TMP DP  RH WIND       PRES   REMARKS
SIOUX FALLS    MOSUNNY   75  49  39 S16G23    30.04F
HURON          MOSUNNY   79  56  45 S15G31    29.96F
CHAMBERLAIN    MOSUNNY   79  61  53 S20G26    29.94F
MITCHELL       SUNNY     80  56  43 S20       29.98F
YANKTON        MOSUNNY   79  52  38 S16G23    30.00F
$$

ABBREVIATIONS USED IN REMARKS
   TC - TEMPERATURE IN CELSIUS
  WCI - WIND CHILL INDEX
   HX - HEAT INDEX
  VSB - VISIBILITY




USA.gov is the U.S. government's official web portal to all federal, state and local government web resources and services.